Location: Newark
(34.1333°N, 7.9667°W)
Time: 17:21:23
(UTC+00:00)

Transit 2A - Pass Details

Date: 16 June 2021
Orbit: 598 x 960 km, 66.7° (Epoch: 23 July)

Event Time Altitude Azimuth Distance (km) Brightness Sun altitude
Rises 04:42:51 0° 306° (NW) 3,179 9.0 -7.3°
Reaches altitude 10° 04:46:51 10° 274° (W) 2,344 8.1 -6.7°
Maximum altitude 04:48:40 12° 255° (WSW) 2,265 7.8 -6.3°
Drops below altitude 10° 04:50:32 10° 235° (SW) 2,423 7.9 -6.0°
Enters shadow 04:54:05 - 209° (SSW) 3,211 8.7 -5.4°
Sets 04:54:54 0° 205° (SSW) 3,445 - -5.3°
